Location: Cardiff
(53.7833°N, 113.6000°W)
Time: 18:58:53
(UTC+00:00)

RS-15 - Pass Details

Date: 09 December 2023
Orbit: 1893 x 2151 km, 64.8° (Epoch: 24 February)

Event Time Altitude Azimuth Distance (km) Brightness Sun altitude
Rises 01:54:16 0° 171° (S) 5,652 10.5 -22.2°
Reaches altitude 10° 01:58:15 10° 162° (SSE) 4,639 9.9 -22.8°
Maximum altitude 02:08:17 32° 105° (ESE) 3,138 8.6 -24.3°
Enters shadow 02:08:25 32° 104° (ESE) 3,137 8.6 -24.3°
